Stefansson Island,

7:26 AM MDT on July 27, 2017 (GMT -0600)
Stefansson Island

Weather History for CXSE - October, 2013

Change the Weather History Date:

Tuesday, October 22, 2013

  Actual Average Record
Temperature  
Mean Temperature 18 °F -  
Max Temperature 21 °F - - ()
Min Temperature 15 °F - - ()
Degree Days  
Heating Degree Days 47    
Moisture  
Dew Point 15 °F    
Average Humidity 90    
Maximum Humidity 92    
Minimum Humidity 83    
Precipitation  
Precipitation 0.02 in - - ()
Sea Level Pressure  
Sea Level Pressure 29.94 in    
Wind  
Wind Speed 25 mph ()    
Max Wind Speed 34 mph    
Max Gust Speed 38 mph    
T = Trace of Precipitation, MM = Missing Value Source: Averaged Metar Reports

Daily Weather History Graph

Daily Weather History Graph

Search for Another Location

Airport or City:

Trip Planner

Search our weather history database for the weather conditions in past years. The results will help you decide how hot, cold, wet, or windy it might be!

Date:

Astronomy

Oct. 22, 2013 Rise Set
Actual Time 9:21 AM MDT 4:07 PM MDT
Civil Twilight 7:55 AM MDT 5:33 PM MDT
Nautical Twilight 6:27 AM MDT 7:00 PM MDT
Astronomical Twilight 4:59 AM MDT 8:28 PM MDT
Moon No Moon Rise No Moon Set
Length of Visible Light 9h 37m
Length of Day
6h 45m
Waning Gibbous, 86% of the Moon is Illuminated
Oct 22
Waning Gibbous
Oct 26
Last Quarter
Nov 3
New
Nov 9
First Quarter
Nov 17
Full

Hourly Weather History & Observations

Time (MDT) Temp. Windchill Dew Point Humidity Pressure Visibility Wind Dir Wind Speed Gust Speed Precip Events Conditions
12:00 AM 15 °F - 13 °F 86% 29.93 in - SSW 31.1 mph - -  
12:00 AM 15.3 °F -5.4 °F 12.7 °F 90% 29.93 in - SSW 31.1 mph - 0.01 in   Unknown
1:00 AM 15.3 °F -5.4 °F 12.7 °F 90% 29.93 in - SSW 31.1 mph - N/A   Unknown
2:00 AM 16.0 °F -4.1 °F 13.5 °F 90% 29.93 in - SSW 29.9 mph - N/A   Unknown
3:00 AM 17.2 °F -1.1 °F 14.5 °F 89% 29.94 in - SSW 25.3 mph 33.4 mph N/A   Unknown
4:00 AM 17.1 °F -3.0 °F 14.7 °F 91% 29.93 in - SSW 31.1 mph 38.0 mph 0.01 in   Unknown
5:00 AM 18.0 °F -1.4 °F 15.6 °F 91% 29.94 in - SSW 29.9 mph 35.7 mph N/A   Unknown
6:00 AM 18 °F - 16 °F 86% 29.93 in - SSW 29.9 mph - -  
6:00 AM 18.1 °F -1.2 °F 15.6 °F 90% 29.93 in - SSW 29.9 mph - N/A   Unknown
7:00 AM 16.7 °F -3.1 °F 14.2 °F 90% 29.92 in - SSW 29.9 mph 38.0 mph N/A   Unknown
8:00 AM 16.9 °F -2.6 °F 14.5 °F 91% 29.92 in - SSW 28.8 mph 34.5 mph N/A   Unknown
9:00 AM 16.0 °F -4.4 °F 13.6 °F 90% 29.93 in - SSW 31.1 mph - 0.01 in   Unknown
10:00 AM 16.9 °F -3.5 °F 14.2 °F 89% - - SSW 32.2 mph 38.0 mph N/A   Unknown
11:00 AM 15.3 °F -5.7 °F 12.9 °F 90% 29.92 in - SSW 32.2 mph - N/A   Unknown
12:00 PM 15 °F - 13 °F 88% 29.92 in - SSW 34.5 mph - -  
12:00 PM 15.3 °F -6.3 °F 13.1 °F 91% 29.92 in - SSW 34.5 mph - N/A   Unknown
1:00 PM 17.1 °F -3.8 °F 15.1 °F 92% 29.92 in - SSW 34.5 mph - 0.02 in   Unknown
2:00 PM 17.6 °F -2.5 °F 15.3 °F 91% 29.93 in - SSW 32.2 mph - N/A   Unknown
3:00 PM 18.9 °F 0.7 °F 16.9 °F 92% 29.95 in - SSW 26.5 mph 33.4 mph N/A   Unknown
4:00 PM 19.0 °F 6.1 °F 16.3 °F 89% 29.97 in - SSE 12.7 mph 20.7 mph N/A   Unknown
5:00 PM 18.3 °F 10.2 °F 14.7 °F 86% 29.98 in - North 5.8 mph - N/A   Unknown
6:00 PM 17 °F - 14 °F 83% 29.97 in - South 11.5 mph - -  
6:00 PM 17.1 °F 4.3 °F 14.2 °F 88% 29.97 in - South 11.5 mph - N/A   Unknown
7:00 PM 19.0 °F 2.7 °F 16.7 °F 91% 29.95 in - SSW 20.7 mph - N/A   Unknown
8:00 PM 20.3 °F 4.4 °F 18.1 °F 91% 29.94 in - South 20.7 mph - N/A   Unknown
9:00 PM 19.9 °F 4.3 °F 17.4 °F 90% 29.94 in - South 19.6 mph - N/A   Unknown
10:00 PM 21.0 °F 4.6 °F 18.7 °F 91% 29.93 in - South 23.0 mph - N/A   Unknown
11:00 PM 21.9 °F 5.8 °F 19.6 °F 91% 29.93 in - South 23.0 mph - N/A   Unknown